"Pseudo-MPEC" for P10N2gj

Created 2019 Apr 22 11:07:05 UT using Find_Orb

Click here for an explanation of pseudo-MPECs

 
 Astrometry: 
     P10N2gj  C2019 04 08%aAQ!A+2d\T6m@#0^#h2BLtr(i.fqk*P,%'aftAstrometrydH(!F51
     P10N2gj  C2019 04 08pIXZa[Hs$NmPredacted;V68Ca*'7j-rR-8LL;.'11_ELAGEyPlOF51
     P10N2gj  C2019 04 08,]h)xLeclickjrbHY!N+]2'nLLAmM@F#gud$=mC2l`*Ub07hereIF51
     P10N2gj  C2019 04 08Lt6-Bb3for=/`8/Y*(]O_yexplanationb,9FadK9hQ3$^/@K')1F51

Station data:
(F51) Pan-STARRS 1, Haleakala  (N20.707235 W156.255910)  US/Hawaii.
   Observers N. Primak, A. Schultz, S. Watters, J. Thiel, T. Goggia. Measurer
   PS1 Science Consortium. 1.8-m Ritchey-Chrétien + CCD.

Orbital elements:  P10N2gj
   Perihelion 2019 Nov 14.755257 +/- 74.9 TT = 18:07:34 (JD 2458802.255257)
Epoch 2019 Apr  9.0 TT = JDT 2458582.5   Earth MOID: 0.2222   AutoNEOCP
M 206.41628494 +/- 55               (J2000 ecliptic)
n   0.69888528 +/- 0.375            Peri.  179.55282 +/- 100
a   1.25756985 +/- 0.452            Node   177.63177 +/- 58
e   0.0246247 +/- 0.279             Incl.   17.08368 +/- 18
P   1.41/515.10d           H 23.2   G  0.15   U 12.1  SR
q 1.22660247 +/- 0.454    Q 1.28853723 +/- 30.2
From 4 observations 2019 Apr. 8 (52.4 min); mean residual 0".04
Residuals in arcseconds: 
190408 F51  .04+  .04+    190408 F51  .05+  .02-    
190408 F51  .08-  .05-    190408 F51  .01-  .03+    

Ephemerides (geocentric):
Date (UTC) HH   RA              Dec         delta   r     elong  mag " sig PA
---- -- -- --  -------------   -----------  ------ ------ -----  --- ---- ---
2019 04 22 11  14 29 00.280   +26 24 44.41  .33576 1.2829 140.8 22.7 0.0  150
2019 04 22 12  14 28 58.123   +26 26 22.94  .33584 1.2829 140.8 22.7 0.0  150
2019 04 22 13  14 28 55.965   +26 28 01.31  .33592 1.2829 140.7 22.7 0.0  150
2019 04 22 14  14 28 53.805   +26 29 39.54  .33601 1.2829 140.7 22.7 0.0  150
2019 04 22 15  14 28 51.644   +26 31 17.62  .33609 1.2829 140.7 22.7 0.0  150
2019 04 22 16  14 28 49.481   +26 32 55.54  .33617 1.2829 140.6 22.7 0.0  150
2019 04 22 17  14 28 47.316   +26 34 33.32  .33626 1.2829 140.6 22.7 0.0  150
2019 04 22 18  14 28 45.151   +26 36 10.94  .33634 1.2829 140.6 22.7 0.0  150
2019 04 22 19  14 28 42.983   +26 37 48.41  .33643 1.2829 140.5 22.7 0.0  150
2019 04 22 20  14 28 40.814   +26 39 25.74  .33651 1.2829 140.5 22.7 0.0  150
2019 04 22 21  14 28 38.644   +26 41 02.91  .33659 1.2828 140.5 22.7 0.0  150
2019 04 22 22  14 28 36.472   +26 42 39.93  .33668 1.2828 140.4 22.7 0.0  150
2019 04 22 23  14 28 34.298   +26 44 16.80  .33676 1.2828 140.4 22.7 0.0  150
2019 04 23 00  14 28 32.124   +26 45 53.52  .33685 1.2828 140.4 22.7 0.0  150
2019 04 23 01  14 28 29.947   +26 47 30.09  .33694 1.2828 140.3 22.7 0.0  150
2019 04 23 02  14 28 27.770   +26 49 06.50  .33702 1.2828 140.3 22.7 0.0  150
2019 04 23 03  14 28 25.591   +26 50 42.77  .33711 1.2828 140.3 22.7 0.0  150
2019 04 23 04  14 28 23.410   +26 52 18.88  .33719 1.2828 140.2 22.7 0.0  150
2019 04 23 05  14 28 21.228   +26 53 54.84  .33728 1.2828 140.2 22.7 0.0  150
2019 04 23 06  14 28 19.045   +26 55 30.65  .33737 1.2828 140.2 22.7 0.0  150
2019 04 23 07  14 28 16.860   +26 57 06.31  .33745 1.2828 140.1 22.7 0.0  150
2019 04 23 08  14 28 14.674   +26 58 41.82  .33754 1.2827 140.1 22.7 0.0  150
2019 04 23 09  14 28 12.487   +27 00 17.17  .33763 1.2827 140.1 22.7 0.0  150
2019 04 23 10  14 28 10.298   +27 01 52.37  .33772 1.2827 140.1 22.7 0.0  150
2019 04 23 11  14 28 08.108   +27 03 27.42  .33780 1.2827 140.0 22.7 0.0  150
2019 04 23 12  14 28 05.917   +27 05 02.32  .33789 1.2827 140.0 22.7 0.0  150
2019 04 23 13  14 28 03.724   +27 06 37.07  .33798 1.2827 140.0 22.7 0.0  150
2019 04 23 14  14 28 01.530   +27 08 11.66  .33807 1.2827 139.9 22.7 0.0  150
2019 04 23 15  14 27 59.335   +27 09 46.10  .33816 1.2827 139.9 22.7 0.0  150
2019 04 23 16  14 27 57.139   +27 11 20.39  .33824 1.2827 139.9 22.7 0.0  150
2019 04 23 17  14 27 54.941   +27 12 54.53  .33833 1.2827 139.8 22.7 0.0  150
2019 04 23 18  14 27 52.742   +27 14 28.51  .33842 1.2827 139.8 22.7 0.0  150
2019 04 23 19  14 27 50.542   +27 16 02.34  .33851 1.2826 139.8 22.7 0.0  150
2019 04 23 20  14 27 48.341   +27 17 36.02  .33860 1.2826 139.7 22.8 0.0  150
2019 04 23 21  14 27 46.138   +27 19 09.54  .33869 1.2826 139.7 22.8 0.0  150
2019 04 23 22  14 27 43.934   +27 20 42.91  .33878 1.2826 139.7 22.8 0.0  150
2019 04 23 23  14 27 41.729   +27 22 16.13  .33887 1.2826 139.6 22.8 0.0  149
2019 04 24 00  14 27 39.523   +27 23 49.19  .33896 1.2826 139.6 22.8 0.0  149
2019 04 24 01  14 27 37.316   +27 25 22.11  .33905 1.2826 139.6 22.8 0.0  149
2019 04 24 02  14 27 35.108   +27 26 54.86  .33914 1.2826 139.5 22.8 0.0  149
2019 04 24 03  14 27 32.898   +27 28 27.47  .33923 1.2826 139.5 22.8 0.0  149
2019 04 24 04  14 27 30.688   +27 29 59.92  .33932 1.2826 139.5 22.8 0.0  149
2019 04 24 05  14 27 28.476   +27 31 32.22  .33941 1.2826 139.4 22.8 0.0  149
2019 04 24 06  14 27 26.263   +27 33 04.36  .33950 1.2825 139.4 22.8 0.0  149
2019 04 24 07  14 27 24.049   +27 34 36.35  .33960 1.2825 139.4 22.8 0.0  149
2019 04 24 08  14 27 21.834   +27 36 08.19  .33969 1.2825 139.3 22.8 0.0  149
2019 04 24 09  14 27 19.618   +27 37 39.87  .33978 1.2825 139.3 22.8 0.0  149
2019 04 24 10  14 27 17.401   +27 39 11.40  .33987 1.2825 139.3 22.8 0.0  149